Weather reports worldwide

Advertisment
Boscombe Down, United Kingdom (3746): temperature & dewpoint: 16.03.2019 17:00:00 - 22.03.2019 17:00:00 (GMT)Boscombe Down, United Kingdom (3746): wind speed & gusts: 16.03.2019 17:00:00 - 22.03.2019 17:00:00 (GMT)Boscombe Down, United Kingdom (3746): wind direction: 16.03.2019 17:00:00 - 22.03.2019 17:00:00 (GMT)Boscombe Down, United Kingdom (3746): reduced air pressure: 16.03.2019 17:00:00 - 22.03.2019 17:00:00 (GMT)Boscombe Down, United Kingdom (3746): visibility: 16.03.2019 17:00:00 - 22.03.2019 17:00:00 (GMT)Boscombe Down, United Kingdom (3746): precipitation: 16.03.2019 17:00:00 - 22.03.2019 17:00:00 (GMT)
Date & Time tt [°C] td [°C] ff [km/h] ff [kn] fx [km/h] fx [kn] dd ppp [hPa] vv [km] rr [mm]
22.03.2019 17:00:00 10,1 7,0 15 8 - - SSW 1027,4 30 0,0
22.03.2019 16:00:00 9,9 6,4 15 8 - - WSW 1027,5 10 0,0
22.03.2019 15:00:00 9,9 6,2 18 10 - - WSW 1027,7 10 0,0
22.03.2019 14:00:00 9,9 6,5 15 8 - - SW 1028,0 10 0,0
22.03.2019 13:00:00 9,9 6,5 16 9 - - SSW 1028,3 10 0,0
22.03.2019 12:00:00 9,8 7,0 15 8 - - SW 1028,6 10 0,0
22.03.2019 11:00:00 9,2 6,9 13 7 - - SSW 1028,8 10 0,0
22.03.2019 10:00:00 8,9 6,7 11 6 - - SSW 1029,4 10 0,0
22.03.2019 09:00:00 8,4 6,3 9 5 - - SSW 1029,4 10 0,0
22.03.2019 08:00:00 8,1 6,1 15 8 - - SW 1029,5 10 0,0
22.03.2019 07:00:00 7,9 6,2 11 6 - - SW 1029,2 10 0,0
22.03.2019 06:00:00 7,8 6,3 13 7 - - SSW 1029,3 10 0,0
22.03.2019 05:00:00 8,0 6,2 15 8 - - SSW 1029,4 14 0,0
22.03.2019 04:00:00 8,4 6,4 15 8 - - S 1029,4 13 0,0
22.03.2019 03:00:00 8,7 7,2 13 7 - - S 1030,0 13 0,0
22.03.2019 02:00:00 9,0 7,3 11 6 - - S 1030,5 19 0,0
22.03.2019 01:00:00 9,5 7,9 13 7 - - SSE 1030,8 14 0,0
22.03.2019 00:00:00 10,1 7,6 13 7 - - SSE 1030,4 10 0,0
21.03.2019 23:00:00 10,1 8,6 9 5 - - SSE 1031,2 18 0,0
21.03.2019 22:00:00 10,5 8,9 11 6 - - SSE 1031,6 27 0,0
21.03.2019 21:00:00 10,8 8,4 0 0 - - N 1032,1 50 0,0
21.03.2019 20:00:00 11,0 8,4 4 2 - - WSW 1032,4 40 0,0
21.03.2019 19:00:00 11,3 8,3 4 2 - - NE 1032,4 40 0,0
21.03.2019 18:00:00 11,4 8,4 4 2 - - W 1032,2 10 0,0
21.03.2019 17:00:00 11,9 8,6 5 3 - - WNW 1032,2 10 0,0
21.03.2019 16:00:00 12,2 8,7 8 4 - - WNW 1032,3 10 0,0
21.03.2019 15:00:00 12,4 8,7 9 5 - - WNW 1032,8 10 0,0
21.03.2019 14:00:00 12,2 9,1 9 5 - - WNW 1033,4 10 0,0
21.03.2019 13:00:00 11,9 9,1 5 3 - - W 1034,2 10 0,0
21.03.2019 12:00:00 11,3 8,5 9 5 - - WNW 1034,6 30 0,0
21.03.2019 11:00:00 10,4 8,7 9 5 - - W 1034,7 10 0,0
21.03.2019 10:00:00 9,3 8,4 13 7 - - W 1034,9 10 0,0
21.03.2019 09:00:00 9,2 8,7 9 5 - - W 1034,7 12 0,0
21.03.2019 08:00:00 8,7 8,4 5 3 - - SSW 1034,3 8 0,0
21.03.2019 07:00:00 8,2 8,0 8 4 - - WSW 1034,1 4,2 0,0
21.03.2019 06:00:00 8,2 7,9 5 3 - - WSW 1033,9 1,6 0,0
21.03.2019 05:00:00 8,2 7,9 8 4 - - W 1033,5 1,9 0,0
21.03.2019 04:00:00 8,3 7,9 9 5 - - W 1033,2 2,2 0,0
21.03.2019 03:00:00 8,4 7,8 9 5 - - W 1033,4 3,6 0,0
21.03.2019 02:00:00 8,6 7,8 9 5 - - W 1033,8 6 0,0
21.03.2019 01:00:00 8,9 8,0 9 5 - - WSW 1033,8 7 0,0
21.03.2019 00:00:00 8,9 7,9 9 5 - - WSW 1033,9 9 0,0
20.03.2019 23:00:00 8,8 7,7 9 5 - - SSW 1033,9 8 0,0
20.03.2019 22:00:00 8,6 7,5 9 5 - - SSW 1033,9 10 0,0
20.03.2019 21:00:00 8,8 7,4 11 6 - - S 1033,9 10 0,0
20.03.2019 20:00:00 9,0 7,5 11 6 - - S 1033,7 10 0,0
20.03.2019 19:00:00 9,7 7,2 9 5 - - SSW 1033,5 10 0,0
20.03.2019 18:00:00 10,1 7,6 13 7 - - SW 1033,0 10 0,0
20.03.2019 17:00:00 10,8 8,0 15 8 - - SSW 1032,8 10 0,0
20.03.2019 16:00:00 11,3 7,8 15 8 - - SW 1032,6 10 0,0
20.03.2019 15:00:00 11,6 8,5 15 8 - - SSW 1032,7 10 0,0
20.03.2019 14:00:00 11,4 8,5 15 8 - - SW 1032,9 10 0,0
20.03.2019 13:00:00 10,6 8,3 18 10 - - SSW 1033,3 10 0,0
20.03.2019 12:00:00 10,5 8,4 15 8 - - SSW 1033,4 10 0,0
20.03.2019 11:00:00 10,5 7,7 15 8 - - SSW 1033,4 10 0,0
20.03.2019 10:00:00 10,0 7,8 15 8 - - WSW 1033,5 10 0,0
20.03.2019 09:00:00 9,0 8,2 8 4 - - WSW 1033,2 10 0,0
20.03.2019 08:00:00 8,6 8,2 9 5 - - SW 1032,8 4,0 0,0
20.03.2019 07:00:00 8,2 7,6 5 3 - - SSW 1032,2 7 0,0
20.03.2019 06:00:00 8,0 7,0 5 3 - - WSW 1031,6 15 0,0
20.03.2019 05:00:00 8,2 7,1 4 2 - - W 1031,5 26 0,0
20.03.2019 04:00:00 7,7 6,8 5 3 - - SSW 1031,1 8 0,0
20.03.2019 03:00:00 7,7 6,9 5 3 - - SSW 1031,2 6 0,0
20.03.2019 02:00:00 6,0 4,7 9 5 - - SSW 1031,3 8 0,0
20.03.2019 01:00:00 7,6 6,8 9 5 - - W 1031,3 10 0,0
20.03.2019 00:00:00 7,6 6,7 9 5 - - SW 1031,1 10 0,0
19.03.2019 23:00:00 8,5 6,9 5 3 - - SSW 1030,9 19 0,0
19.03.2019 22:00:00 8,6 7,0 9 5 - - SW 1030,6 25 0,0
19.03.2019 21:00:00 9,1 7,1 11 6 - - WSW 1030,5 10 0,0
19.03.2019 20:00:00 9,5 7,0 13 7 - - SW 1029,9 10 0,0
19.03.2019 19:00:00 10,0 7,3 11 6 - - SW 1029,6 10 0,0
19.03.2019 18:00:00 10,5 7,0 11 6 - - WSW 1029,0 10 0,0
19.03.2019 17:00:00 11,1 6,8 15 8 - - WSW 1027,9 10 0,0
19.03.2019 16:00:00 11,4 6,5 16 9 - - W 1028,1 10 0,0
19.03.2019 15:00:00 11,7 6,8 21 11 - - WNW 1028,0 10 0,0
19.03.2019 14:00:00 11,1 7,3 16 9 - - WNW 1028,0 10 0,0
19.03.2019 13:00:00 11,6 7,2 15 8 - - WSW 1027,9 10 0,0
19.03.2019 12:00:00 11,4 8,2 11 6 - - WSW 1028,0 25 0,0
19.03.2019 11:00:00 11,0 8,0 8 4 - - SW 1027,9 10 0,0
19.03.2019 10:00:00 9,3 7,7 8 4 - - SSW 1027,8 10 0,0
19.03.2019 09:00:00 7,7 6,9 5 3 - - S 1027,6 9 0,0
19.03.2019 08:00:00 7,0 6,6 5 3 - - SW 1027,3 8 0,0
19.03.2019 07:00:00 6,3 5,8 9 5 - - W 1026,7 8 0,0
19.03.2019 06:00:00 6,1 5,8 4 2 - - WNW 1026,3 4,4 0,0
19.03.2019 05:00:00 5,0 4,6 4 2 - - SE 1026,1 4,0 0,0
19.03.2019 04:00:00 5,9 5,5 9 5 - - W 1025,6 3,2 0,0
19.03.2019 03:00:00 5,7 5,4 11 6 - - WSW 1025,7 4,2 0,0
19.03.2019 02:00:00 5,2 4,7 8 4 - - W 1025,6 5 0,0
19.03.2019 01:00:00 6,0 5,2 9 5 - - W 1025,6 10 0,0
19.03.2019 00:00:00 6,5 5,5 8 4 - - W 1025,3 14 0,0
18.03.2019 23:00:00 6,7 5,6 9 5 - - W 1025,0 19 0,0
18.03.2019 22:00:00 6,7 5,5 5 3 - - W 1024,8 10 0,0
18.03.2019 21:00:00 6,9 5,6 4 2 - - WSW 1024,7 26 0,0
18.03.2019 20:00:00 7,1 5,6 8 4 - - WSW 1024,0 30 0,0
18.03.2019 19:00:00 7,2 5,5 11 6 - - W 1023,6 30 0,0
18.03.2019 18:00:00 7,8 5,4 15 8 - - W 1022,9 10 0,0
18.03.2019 17:00:00 8,1 5,8 15 8 - - W 1022,4 10 0,2
18.03.2019 16:00:00 8,5 5,5 22 12 - - WNW 1022,3 10 0,0
18.03.2019 15:00:00 8,4 4,7 21 11 - - W 1022,2 10 0,0
18.03.2019 14:00:00 9,2 4,6 22 12 - - W 1021,9 10 0,0
18.03.2019 13:00:00 8,7 3,5 22 12 - - W 1022,2 10 0,0
18.03.2019 12:00:00 8,8 3,5 26 14 - - W 1022,2 10 0,0
18.03.2019 11:00:00 9,8 2,1 29 16 - - WNW 1022,1 10 0,0
18.03.2019 10:00:00 8,9 3,3 18 10 - - WNW 1021,8 10 0,0
18.03.2019 09:00:00 7,4 4,2 18 10 - - W 1021,3 10 0,0
18.03.2019 08:00:00 5,0 3,1 11 6 - - W 1021,1 10 0,0
18.03.2019 07:00:00 3,7 2,4 2 1 - - W 1020,7 10 0,0
18.03.2019 06:00:00 3,2 1,7 5 3 - - WNW 1020,3 30 0,0
18.03.2019 05:00:00 3,0 1,5 8 4 - - NW 1019,8 29 0,0
18.03.2019 04:00:00 3,6 1,9 16 9 - - WNW 1019,2 30 0,0
18.03.2019 03:00:00 3,4 1,8 8 4 - - WNW 1018,8 35 0,0
18.03.2019 02:00:00 3,4 1,7 15 8 - - W 1018,5 10 0,0
18.03.2019 01:00:00 4,3 2,4 16 9 - - WNW 1017,7 30 0,0
18.03.2019 00:00:00 4,1 2,4 13 7 - - W 1016,8 40 0,0
17.03.2019 23:00:00 4,3 2,5 16 9 - - W 1016,1 50 0,0
17.03.2019 22:00:00 4,7 2,6 18 10 - - WNW 1015,3 10 0,0
17.03.2019 21:00:00 5,4 2,8 18 10 - - WNW 1014,2 40 0,0
17.03.2019 20:00:00 5,5 3,4 11 6 - - WNW 1013,1 40 0,0
17.03.2019 19:00:00 5,4 3,7 22 12 - - W 1012,1 40 0,0
17.03.2019 18:00:00 6,3 3,2 24 13 50 27 W 1011,0 40 0,0
17.03.2019 17:00:00 7,0 1,3 31 17 55 30 W 1010,3 45 0,0
17.03.2019 16:00:00 7,5 0,2 34 18 54 29 W 1009,4 10 0,0
17.03.2019 15:00:00 8,2 -0,3 39 21 55 30 W 1008,6 35 0,0
17.03.2019 14:00:00 9,3 1,1 37 20 52 28 W 1008,0 50 0,0
17.03.2019 13:00:00 9,6 1,2 31 17 48 26 W 1007,9 26 0,0
17.03.2019 12:00:00 8,2 -0,5 29 16 48 26 WNW 1007,5 50 0,0
17.03.2019 11:00:00 7,9 -0,1 34 18 50 27 W 1007,0 35 0,0
17.03.2019 10:00:00 6,4 1,9 24 13 - - W 1006,6 10 0,0
17.03.2019 09:00:00 4,4 2,2 18 10 - - W 1005,8 10 0,0
17.03.2019 08:00:00 3,6 1,8 18 10 - - W 1005,1 50 0,0
17.03.2019 07:00:00 3,2 1,8 16 9 - - W 1003,8 45 0,0
17.03.2019 06:00:00 3,4 1,6 21 11 - - W 1002,9 50 0,0
17.03.2019 05:00:00 3,5 1,7 16 9 - - W 1002,0 45 0,0
17.03.2019 04:00:00 4,1 2,3 24 13 - - W 1001,2 10 0,0
17.03.2019 03:00:00 4,4 2,4 22 12 - - W 1000,4 35 0,0
17.03.2019 02:00:00 4,9 3,0 21 11 - - W 999,7 35 0,0
17.03.2019 01:00:00 5,5 3,5 28 15 52 28 W 999,2 45 0,2
17.03.2019 00:00:00 6,0 4,4 24 13 - - W 998,4 30 0,0
16.03.2019 23:00:00 6,3 4,9 22 12 - - W 997,6 45 0,0
16.03.2019 22:00:00 6,9 5,4 35 19 50 27 W 997,4 10 0,4
16.03.2019 21:00:00 7,7 6,7 24 13 59 32 WSW 996,9 14 2,8
16.03.2019 20:00:00 9,2 8,5 35 19 59 32 SW 996,0 6 2,4
16.03.2019 19:00:00 9,0 8,2 41 22 63 34 SSW 996,3 3,0 0,2
16.03.2019 18:00:00 9,2 7,8 41 22 63 34 SSW 997,4 8 0,0
16.03.2019 17:00:00 9,7 7,1 42 23 72 39 SW 998,5 7 0,0

tt = temperature
td = dewpoint
ff = wind speed
fx = gusts
dd = wind direction
ppp = reduced air pressure
vv = visibility
rr = precipitation

Next stations